Weather History for Borden, ON

Change the Weather History Date:

Thursday, September 27, 2012

  Actual Average Record
Temperature  
Mean Temperature 51 °F -  
Max Temperature 63 °F 56 °F 77 °F (2004)
Min Temperature 39 °F 38 °F 38 °F (2013)
Degree Days  
Heating Degree Days 14    
Growing Degree Days 1 (Base 50)    
Moisture  
Dew Point 39 °F    
Average Humidity 70    
Maximum Humidity 93    
Minimum Humidity 30    
Precipitation  
Precipitation 0.08 in - - ()
Sea Level Pressure  
Sea Level Pressure 30.24 in    
Wind  
Wind Speed 2 mph ()    
Max Wind Speed 6 mph    
Max Gust Speed -    
Visibility 9.0 miles    
Events      
Averages and records for this station are not official NWS values.
T = Trace of Precipitation, MM = Missing Value Source: Averaged Metar Reports

Daily Weather History Graph

Daily Weather History Graph

Search for Another Location

Airport:

Trip Planner

Search our weather history database for the weather conditions in past years. The results will help you decide how hot, cold, wet, or windy it might be!

Date:

Astronomy

Sep. 27, 2012 Rise Set
Actual Time 7:13 AM EDT 7:06 PM EDT
Civil Twilight 6:44 AM EDT 7:35 PM EDT
Nautical Twilight 6:10 AM EDT 8:09 PM EDT
Astronomical Twilight 5:36 AM EDT 8:43 PM EDT
Moon 5:40 PM EDT (9/27) 4:36 AM EDT (9/27)
Length of Visible Light 12h 51m
Length of Day
11h 53m
Waxing Gibbous, 94% of the Moon is Illuminated
Sep 27
Waxing Gibbous
Sep 29
Full
Oct 8
Last Quarter
Oct 15
New
Oct 21
First Quarter

Hourly Weather History & Observations

Time (EDT) Temp. Windchill Dew Point Humidity Pressure Visibility Wind Dir Wind Speed Gust Speed Precip Events Conditions
1:00 AM 42.8 °F - 39.2 °F 87% 30.18 in 9.0 mi Calm Calm - N/A   Overcast
2:00 AM 40 °F - 36 °F 82% 30.19 in 9 mi SSW 2.3 mph - -  
2:00 AM 39.2 °F 37.0 °F 35.6 °F 87% 30.19 in 9.0 mi SW 3.5 mph - N/A   Scattered Clouds
3:00 AM 39.2 °F - 37.4 °F 93% 30.20 in 9.0 mi SSW 2.3 mph - N/A   Mostly Cloudy
4:00 AM 41.0 °F - 37.4 °F 87% 30.21 in 9.0 mi Calm Calm - N/A   Overcast
5:00 AM 41.0 °F - 39.2 °F 93% 30.22 in 9.0 mi Calm Calm - N/A   Overcast
6:00 AM 42.8 °F - 41.0 °F 93% 30.24 in 9.0 mi Calm Calm - N/A   Overcast
7:00 AM 42.8 °F - 39.2 °F 87% 30.26 in 9.0 mi South 2.3 mph - N/A   Overcast
8:00 AM 41 °F - 38 °F 87% 30.28 in 9 mi Calm Calm - -  
8:00 AM 41.0 °F - 39.2 °F 93% 30.28 in 9.0 mi Calm Calm - N/A   Mostly Cloudy
9:00 AM 50.0 °F - 44.6 °F 82% 30.28 in 9.0 mi Calm Calm - N/A   Clear
10:00 AM 57.2 °F - 41.0 °F 55% 30.29 in 9.0 mi Calm Calm - N/A   Clear
11:00 AM 59.0 °F - 39.2 °F 48% 30.29 in 9.0 mi SSE 3.5 mph - N/A   Partly Cloudy
12:00 PM 59.0 °F - 35.6 °F 42% 30.29 in 9.0 mi North 2.3 mph - N/A   Clear
1:00 PM 60.8 °F - 37.4 °F 42% 30.28 in 9.0 mi ESE 4.6 mph - N/A   Partly Cloudy
2:00 PM 62 °F - 39 °F 30% 30.25 in 9 mi ESE 4.6 mph - -  
2:00 PM 62.6 °F - 39.2 °F 42% 30.25 in 9.0 mi ESE 4.6 mph - N/A   Partly Cloudy
3:00 PM 60.8 °F - 37.4 °F 42% 30.24 in 9.0 mi ENE 3.5 mph - N/A   Scattered Clouds
4:00 PM 62.6 °F - 37.4 °F 39% 30.22 in 9.0 mi ENE 4.6 mph - N/A   Partly Cloudy
5:00 PM 60.8 °F - 41.0 °F 48% 30.21 in 9.0 mi ENE 5.8 mph - N/A   Mostly Cloudy
6:00 PM 59.0 °F - 41.0 °F 51% 30.21 in 9.0 mi East 4.6 mph - N/A   Partly Cloudy
7:00 PM 55.4 °F - 41.0 °F 58% 30.21 in 9.0 mi ESE 3.5 mph - N/A   Clear
8:00 PM 46 °F - 41 °F 77% 30.22 in 9 mi Calm Calm - -  
8:00 PM 46.4 °F - 41.0 °F 81% 30.22 in 9.0 mi NNE 2.3 mph - N/A   Clear
9:00 PM 44.6 °F - 39.2 °F 81% 30.22 in 9.0 mi South 2.3 mph - N/A   Clear
10:00 PM 41.0 °F - 37.4 °F 87% 30.23 in 9.0 mi Calm Calm - N/A   Clear
11:00 PM 39.2 °F - 35.6 °F 87% 30.22 in 9.0 mi WSW 2.3 mph - N/A   Clear